Date,TemperatureHighF,TemperatureAvgF,TemperatureLowF,DewpointHighF,DewpointAvgF,DewpointLowF,HumidityHigh,HumidityAvg,HumidityLow,PressureMaxIn,PressureMinIn,WindSpeedMaxMPH,WindSpeedAvgMPH,GustSpeedMaxMPH,PrecipitationSumIn
2013-4-1,82.8,68.5,52.0,36.1,0.5,-20.0,32,11,2,28.53,27.20,14,2,14,0.00
2013-4-2,77.4,64.5,48.7,39.7,-7.1,-20.0,33,8,2,28.11,27.23,15,2,15,0.00
2013-4-3,82.6,66.6,48.2,24.7,-6.1,-20.0,28,8,2,29.15,27.29,13,2,13,0.00
2013-4-4,90.9,71.8,51.8,28.5,-3.6,-20.0,28,8,2,28.88,27.20,12,1,15,0.00
2013-4-5,87.1,72.9,56.8,-7.0,-12.5,-20.0,6,3,2,27.73,27.17,17,2,17,0.00
2013-4-6,85.5,71.5,56.7,34.5,5.2,-20.0,32,13,2,27.85,27.14,12,2,12,0.00
2013-4-7,86.0,71.6,55.2,40.0,7.5,-20.0,38,16,2,27.61,27.05,14,2,15,0.00
2013-4-8,84.6,70.3,48.4,44.0,18.7,-17.0,84,20,2,28.05,26.75,26,8,29,0.02
2013-4-9,62.6,56.0,48.0,49.7,39.4,31.8,85,57,35,30.53,27.79,18,4,22,0.08
2013-4-10,62.4,56.9,50.7,52.5,42.4,32.4,93,62,35,31.01,27.76,15,3,17,0.00
2013-4-11,68.7,57.6,51.1,53.9,47.6,35.5,92,73,31,31.01,27.34,11,1,13,0.00
2013-4-12,72.1,60.9,54.9,54.9,48.8,30.2,86,69,23,30.92,27.55,13,1,15,0.00
2013-4-13,75.4,63.3,55.2,52.7,42.6,-12.1,82,56,3,31.01,27.17,16,2,17,0.00
2013-4-14,76.1,67.6,59.5,49.8,44.6,35.6,69,46,24,30.68,27.17,18,4,18,0.00
2013-4-15,78.1,69.6,60.8,48.1,42.6,34.1,58,39,21,28.82,27.17,20,6,23,0.00
2013-4-16,77.2,69.7,62.4,47.4,41.3,35.6,52,37,24,28.88,27.14,22,6,22,0.00
2013-4-17,66.4,62.8,57.4,41.0,21.3,-12.5,46,26,4,31.01,27.49,22,5,22,0.00
2013-4-18,67.3,59.8,51.4,31.0,13.0,-12.5,41,22,4,31.01,29.23,16,2,16,0.00
2013-4-19,73.6,63.2,52.2,32.0,8.5,-20.0,37,18,2,31.01,28.64,13,2,13,0.00
2013-4-20,77.7,65.5,52.3,34.6,10.9,-20.0,40,21,2,31.01,29.06,15,2,17,0.00
2013-4-21,80.6,68.5,56.5,37.4,14.9,-19.9,37,21,2,31.01,30.92,13,2,13,0.00
2013-4-22,83.7,70.9,58.5,36.4,9.2,-20.0,35,17,2,31.01,25.07,15,2,17,0.00
2013-4-23,82.9,71.4,59.9,33.7,11.8,-20.0,31,16,2,17.72,17.72,17,2,17,0.00
2013-4-24,82.9,73.0,61.7,36.5,11.1,-20.0,33,15,2,17.72,17.72,13,3,13,0.00
2013-4-25,79.9,72.4,64.6,37.7,13.0,-20.0,33,16,2,17.72,17.72,22,4,23,0.00
2013-4-26,79.7,69.6,57.9,38.0,10.9,-20.0,34,17,2,17.72,17.72,13,2,13,0.00
2013-4-27,92.5,75.6,60.4,36.8,5.1,-20.0,31,13,2,17.72,17.72,11,2,11,0.00
2013-4-28,95.5,77.4,56.1,11.3,-10.0,-20.0,14,3,2,17.72,17.72,17,2,21,0.00
2013-4-29,97.3,78.7,56.8,-4.9,-10.6,-20.0,6,3,2,17.72,17.72,15,2,15,0.00
2013-4-30,97.3,80.1,61.3,-4.7,-10.8,-20.0,5,3,2,17.72,17.72,17,3,17,0.00